Location: Sobotiste
(48.7170°N, 17.4000°E)
Time: 09:31:34
(UTC+02:00)

YUBILEINY - Pass Details

Date: 14 March 2026
Orbit: 1477 x 1509 km, 82.5° (Epoch: 17 April)

Event Time Altitude Azimuth Distance (km) Brightness Sun altitude
Rises 00:50:31 0° 352° (N) 4,627 ? -42.6°
Reaches altitude 10° 00:54:50 10° 11° (N) 3,638 ? -42.4°
Maximum altitude 01:00:20 18° 51° (NE) 3,056 ? -42.1°
Drops below altitude 10° 01:05:48 10° 91° (E) 3,618 ? -41.8°
Sets 01:10:02 0° 109° (ESE) 4,592 ? -41.5°
